Waarnemingen

Advertentie
Mijn weer
Le Luc, Frankrijk (7675): temperatuur & dauwpunt: 14.02.2019 14:00:00 - 20.02.2019 14:00:00 (CET)Le Luc, Frankrijk (7675): temperatuur 5cm: 14.02.2019 14:00:00 - 20.02.2019 14:00:00 (CET)Le Luc, Frankrijk (7675): windsnelheid & windstoten: 14.02.2019 14:00:00 - 20.02.2019 14:00:00 (CET)Le Luc, Frankrijk (7675): windrichting: 14.02.2019 14:00:00 - 20.02.2019 14:00:00 (CET)Le Luc, Frankrijk (7675): luchtdruk: 14.02.2019 14:00:00 - 20.02.2019 14:00:00 (CET)Le Luc, Frankrijk (7675): zicht: 14.02.2019 14:00:00 - 20.02.2019 14:00:00 (CET)Le Luc, Frankrijk (7675): Zonneschijnduur: 14.02.2019 14:00:00 - 20.02.2019 14:00:00 (CET)Le Luc, Frankrijk (7675): neerslag: 14.02.2019 14:00:00 - 20.02.2019 14:00:00 (CET)
Datum & Tijd tt [°C] td [°C] tt 5cm [°C] ff [km/u] ff [kn] fx [km/u] fx [kn] dd ppp [hPa] vv [km] sd [min] rr [mm]
20.02.2019 14:00:00 - - - - - - - - - - - -
20.02.2019 13:00:00 13,6 4,2 19,9 4 2 14 8 NW 1025,5 35 60 0,0
20.02.2019 12:00:00 12,7 4,4 16,8 0 0 6 3 N 1026,1 35 60 0,0
20.02.2019 11:00:00 8,7 3,9 11,3 3 2 7 4 NNO 1026,3 19 60 0,0
20.02.2019 10:00:00 5,4 2,6 5,1 2 1 9 5 OZO 1026,3 16 60 0,0
20.02.2019 09:00:00 2,7 1,2 -0,6 0 0 3 2 N 1026,2 14 52 0,0
20.02.2019 08:00:00 -0,8 -1,8 -2,1 0 0 5 3 N 1025,8 9 13 0,0
20.02.2019 07:00:00 -0,8 -1,5 -3,4 3 2 4 2 WZW 1025,1 10 0 0,0
20.02.2019 06:00:00 -1,1 -1,8 -3,3 0 0 4 2 N 1025,1 11 0 0,0
20.02.2019 05:00:00 -0,5 -1,5 -2,9 0 0 5 3 N 1024,8 13 0 0,0
20.02.2019 04:00:00 0,1 -0,6 -2,9 3 1 4 2 WZW 1024,9 13 0 0,0
20.02.2019 03:00:00 0,6 -0,3 -2,3 0 0 3 1 N 1025,0 13 0 0,0
20.02.2019 02:00:00 1,0 0,0 -1,0 0 0 6 3 N 1025,0 14 0 0,0
20.02.2019 01:00:00 2,5 1,3 0,3 0 0 4 2 N 1024,6 14 0 0,0
20.02.2019 00:00:00 1,7 0,5 -1,0 3 1 4 2 W 1024,3 19 0 0,0
19.02.2019 23:00:00 2,1 0,5 -0,4 0 0 3 2 N 1024,3 18 0 0,0
19.02.2019 22:00:00 3,6 1,8 0,9 0 0 4 2 N 1024,2 19 0 0,0
19.02.2019 21:00:00 5,0 2,5 2,3 0 0 4 2 N 1023,5 35 0 0,0
19.02.2019 20:00:00 7,1 3,7 3,9 5 3 8 5 WNW 1023,2 41 0 0,0
19.02.2019 19:00:00 8,7 4,3 5,4 4 2 12 7 NO 1022,7 49 0 0,0
19.02.2019 18:00:00 11,4 4,4 10,4 10 5 18 10 ZO 1021,9 47 47 0,0
19.02.2019 17:00:00 14,2 2,7 15,2 5 3 14 8 O 1021,8 46 60 0,0
19.02.2019 16:00:00 14,3 3,4 19,4 6 4 14 8 OZO 1022,0 33 60 0,0
19.02.2019 15:00:00 14,1 3,2 20,3 4 2 18 10 ZZO 1022,3 39 60 0,0
19.02.2019 14:00:00 13,5 3,8 18,9 4 2 18 10 ZW 1022,9 35 60 0,0
19.02.2019 13:00:00 12,4 3,9 15,2 8 4 17 9 WZW 1023,6 49 26 0,0
19.02.2019 12:00:00 10,6 4,5 14,3 3 1 8 4 ZW 1024,7 36 17 0,0
19.02.2019 11:00:00 9,0 4,6 9,7 2 1 7 4 NNW 1024,9 31 29 0,0
19.02.2019 10:00:00 6,4 4,2 6,2 0 0 12 6 N 1025,1 20 0 0,0
19.02.2019 09:00:00 4,8 3,6 4,4 0 0 5 3 N 1024,8 18 0 0,0
19.02.2019 08:00:00 4,3 3,3 4,0 0 0 5 3 N 1024,4 17 0 0,0
19.02.2019 07:00:00 4,2 3,3 3,8 0 0 6 3 N 1023,8 16 0 0,0
19.02.2019 06:00:00 4,0 3,3 3,6 3 1 4 2 N 1024,0 12 0 0,0
19.02.2019 05:00:00 3,8 3,1 3,0 4 2 5 3 OZO 1024,1 11 0 0,0
19.02.2019 04:00:00 3,4 2,4 2,7 0 0 4 2 N 1023,9 15 0 0,0
19.02.2019 03:00:00 2,8 1,8 1,3 3 1 4 2 W 1024,3 17 0 0,0
19.02.2019 02:00:00 1,6 0,6 -0,3 0 0 3 2 N 1024,7 15 0 0,0
19.02.2019 01:00:00 1,1 0,1 -1,2 0 0 0 0 N 1025,0 20 0 0,0
19.02.2019 00:00:00 1,8 0,8 -1,2 0 0 4 2 N 1024,9 15 0 0,0
18.02.2019 23:00:00 2,4 1,4 -0,6 0 0 4 2 N 1025,0 20 0 0,0
18.02.2019 22:00:00 3,8 2,5 0,8 2 1 7 4 W 1024,9 35 0 0,0
18.02.2019 21:00:00 5,1 3,3 2,3 0 0 5 3 N 1024,6 40 0 0,0
18.02.2019 20:00:00 6,7 4,2 3,8 0 0 2 1 N 1024,4 50 0 0,0
18.02.2019 19:00:00 9,5 4,9 5,8 0 0 6 4 N 1023,8 50 0 0,0
18.02.2019 18:00:00 12,6 5,5 10,5 3 2 14 8 ZZW 1023,3 50 46 0,0
18.02.2019 17:00:00 15,1 5,9 15,5 3 2 10 5 OZO 1023,0 41 46 0,0
18.02.2019 16:00:00 15,3 6,0 18,6 6 3 14 8 ZO 1023,4 46 57 0,0
18.02.2019 15:00:00 15,5 6,2 20,3 5 3 13 7 ZZO 1023,7 47 60 0,0
18.02.2019 14:00:00 14,2 7,0 19,9 4 2 7 4 O 1024,7 33 60 0,0
18.02.2019 13:00:00 11,8 6,5 15,1 4 2 7 4 ZZO 1025,7 31 60 0,0
18.02.2019 12:00:00 7,2 5,7 8,9 3 1 8 4 ZO 1027,0 22 55 0,0
18.02.2019 11:00:00 4,2 4,1 5,6 2 1 4 2 OZO 1027,4 10 7 0,0
18.02.2019 10:00:00 2,2 2,2 2,8 0 0 6 4 N 1027,7 8 9 0,0
18.02.2019 09:00:00 1,5 1,5 1,4 3 2 7 4 WNW 1027,8 0,3 0 0,0
18.02.2019 08:00:00 1,2 1,1 1,2 5 3 6 3 WNW 1027,7 0,2 0 0,0
18.02.2019 07:00:00 1,6 1,5 1,5 3 2 7 4 W 1027,4 0,2 0 0,0
18.02.2019 06:00:00 2,0 1,9 1,9 2 1 5 3 WNW 1027,4 0,2 0 0,0
18.02.2019 05:00:00 2,0 1,9 2,0 5 3 8 4 N 1027,2 0,3 0 0,0
18.02.2019 04:00:00 2,3 2,2 0,9 0 0 3 1 N 1027,3 0,1 0 0,0
18.02.2019 03:00:00 1,0 0,7 -0,2 0 0 0 0 N 1027,6 0,3 0 0,0
18.02.2019 02:00:00 1,3 1,0 -0,6 0 0 2 1 N 1028,1 0,1 0 0,0
18.02.2019 01:00:00 1,5 0,9 -1,2 0 0 3 2 N 1028,4 1,8 0 0,0
18.02.2019 00:00:00 1,6 0,4 -1,5 0 0 4 2 N 1028,4 27 0 0,0
17.02.2019 23:00:00 3,6 2,7 0,1 4 2 4 2 W 1028,4 19 0 0,0
17.02.2019 22:00:00 4,3 3,1 0,5 0 0 2 1 N 1028,4 40 0 0,0
17.02.2019 21:00:00 5,8 3,6 2,1 0 0 8 4 N 1027,9 28 0 0,0
17.02.2019 20:00:00 8,1 5,7 5,4 4 2 8 4 W 1027,5 39 0 0,0
17.02.2019 19:00:00 10,5 6,6 7,7 4 2 11 6 WNW 1027,1 50 0 0,0
17.02.2019 18:00:00 13,3 6,6 11,3 5 3 16 8 W 1026,5 50 45 0,0
17.02.2019 17:00:00 15,5 5,7 16,0 8 4 18 10 WZW 1026,7 44 60 0,0
17.02.2019 16:00:00 15,5 7,3 15,9 12 7 21 12 OZO 1026,7 45 39 0,0
17.02.2019 15:00:00 17,0 7,3 20,9 16 8 21 11 OZO 1026,7 36 60 0,0
17.02.2019 14:00:00 17,5 5,7 23,6 3 2 9 5 OZO 1027,5 20 60 0,0
17.02.2019 13:00:00 16,4 3,8 21,2 2 1 5 3 ZW 1028,4 33 60 0,0
17.02.2019 12:00:00 13,5 5,9 17,3 0 0 4 2 N 1029,4 20 60 0,0
17.02.2019 11:00:00 10,0 4,6 13,4 0 0 4 2 N 1030,0 20 60 0,0
17.02.2019 10:00:00 6,1 2,2 5,0 0 0 2 1 N 1030,4 19 60 0,0
17.02.2019 09:00:00 2,1 0,2 -2,1 0 0 2 1 N 1030,8 14 60 0,0
17.02.2019 08:00:00 -1,8 -2,5 -4,6 0 0 4 2 N 1030,7 11 7 0,0
17.02.2019 07:00:00 -1,8 -2,5 -4,7 0 0 0 0 N 1030,4 14 0 0,0
17.02.2019 06:00:00 -1,8 -2,6 -4,4 0 0 0 0 N 1030,1 13 0 0,0
17.02.2019 05:00:00 -0,7 -1,5 -3,9 2 1 3 2 W 1030,0 13 0 0,0
17.02.2019 04:00:00 -0,7 -1,8 -3,2 0 0 4 2 N 1030,3 12 0 0,0
17.02.2019 03:00:00 -0,5 -1,6 -2,8 0 0 0 0 N 1030,6 14 0 0,0
17.02.2019 02:00:00 0,9 -0,1 -2,0 0 0 3 2 N 1030,5 13 0 0,0
17.02.2019 01:00:00 1,2 -0,1 -1,4 0 0 4 2 N 1030,4 16 0 0,0
17.02.2019 00:00:00 1,9 0,6 -0,8 0 0 3 2 N 1030,3 18 0 0,0
16.02.2019 23:00:00 3,1 1,3 0,5 0 0 3 2 N 1030,5 19 0 0,0
16.02.2019 22:00:00 4,7 2,1 1,5 0 0 3 2 N 1030,5 25 0 0,0
16.02.2019 21:00:00 6,2 2,6 2,7 0 0 4 2 N 1030,0 32 0 0,0
16.02.2019 20:00:00 8,6 3,4 4,9 0 0 6 4 N 1029,7 26 0 0,0
16.02.2019 19:00:00 10,8 3,8 7,4 4 2 10 5 WNW 1029,7 33 0 0,0
16.02.2019 18:00:00 13,3 4,2 11,0 8 5 14 7 ONO 1029,0 39 43 0,0
16.02.2019 17:00:00 17,2 3,5 18,0 11 6 16 9 O 1028,8 31 60 0,0
16.02.2019 16:00:00 18,6 2,4 22,4 9 5 16 9 O 1029,1 20 60 0,0
16.02.2019 15:00:00 18,8 1,3 23,4 9 5 16 9 ZO 1029,4 41 60 0,0
16.02.2019 14:00:00 18,4 3,4 24,1 6 3 12 7 OZO 1030,0 27 60 0,0
16.02.2019 13:00:00 17,3 3,6 22,5 0 0 5 3 N 1030,6 20 60 0,0
16.02.2019 12:00:00 14,5 5,3 18,4 0 0 4 2 N 1031,4 20 60 0,0
16.02.2019 11:00:00 10,4 5,0 14,6 0 0 4 2 N 1031,8 20 60 0,0
16.02.2019 10:00:00 6,3 3,1 6,7 0 0 4 2 N 1032,3 18 60 0,0
16.02.2019 09:00:00 2,3 1,0 -1,7 0 0 4 2 N 1032,4 16 60 0,0
16.02.2019 08:00:00 -2,0 -2,7 -4,5 0 0 2 1 N 1032,1 10 7 0,0
16.02.2019 07:00:00 -1,3 -1,9 -3,9 0 0 3 2 N 1031,6 10 0 0,0
16.02.2019 06:00:00 -1,2 -1,9 -4,0 3 2 4 2 W 1031,5 13 0 0,0
16.02.2019 05:00:00 -0,7 -1,8 -2,8 0 0 4 2 N 1031,5 11 0 0,0
16.02.2019 04:00:00 0,0 -0,9 -1,8 4 2 6 3 WNW 1031,2 11 0 0,0
16.02.2019 03:00:00 0,0 -1,1 -1,6 0 0 5 3 N 1031,2 16 0 0,0
16.02.2019 02:00:00 1,9 1,0 -0,8 0 0 9 5 N 1031,2 11 0 0,0
16.02.2019 01:00:00 2,0 1,0 -0,7 0 0 5 3 N 1031,2 19 0 0,0
16.02.2019 00:00:00 2,7 1,4 0,6 3 1 5 3 ZW 1031,0 17 0 0,0
15.02.2019 23:00:00 3,8 2,2 1,4 0 0 4 2 N 1030,8 36 0 0,0
15.02.2019 22:00:00 4,9 3,2 2,0 2 1 4 2 ZO 1030,1 39 0 0,0
15.02.2019 21:00:00 6,7 3,3 3,9 0 0 7 4 N 1029,4 30 0 0,0
15.02.2019 20:00:00 8,7 4,7 5,2 2 1 8 4 NW 1028,9 27 0 0,0
15.02.2019 19:00:00 12,0 5,8 8,0 3 1 7 4 OZO 1028,1 29 0 0,0
15.02.2019 18:00:00 15,9 5,2 12,9 6 3 12 6 ONO 1027,4 37 42 0,0
15.02.2019 17:00:00 21,6 2,3 22,4 0 0 8 4 N 1027,1 42 60 0,0
15.02.2019 16:00:00 21,0 2,3 26,0 5 3 9 5 ZO 1027,6 45 60 0,0
15.02.2019 15:00:00 21,4 2,6 26,4 3 2 9 5 WNW 1028,0 35 60 0,0
15.02.2019 14:00:00 19,5 4,4 24,2 3 2 8 4 ONO 1029,1 42 60 0,0
15.02.2019 13:00:00 16,9 4,9 22,6 2 1 5 3 OZO 1030,0 20 60 0,0
15.02.2019 12:00:00 14,4 4,9 17,3 0 0 7 4 N 1031,4 35 60 0,0
15.02.2019 11:00:00 9,9 4,1 12,8 0 0 6 4 N 1031,8 20 60 0,0
15.02.2019 10:00:00 5,9 2,5 5,3 0 0 12 6 N 1032,3 19 60 0,0
15.02.2019 09:00:00 1,7 0,7 -1,7 0 0 3 2 N 1032,7 17 60 0,0
15.02.2019 08:00:00 -1,4 -2,1 -5,2 0 0 3 2 N 1032,9 16 5 0,0
15.02.2019 07:00:00 -2,0 -3,0 -4,5 0 0 5 3 N 1032,6 15 0 0,0
15.02.2019 06:00:00 -1,2 -1,8 -4,3 2 1 3 1 WZW 1032,4 11 0 0,0
15.02.2019 05:00:00 -1,2 -2,0 -3,4 0 0 4 2 N 1032,2 17 0 0,0
15.02.2019 04:00:00 -1,2 -2,0 -3,1 0 0 4 2 N 1032,3 20 0 0,0
15.02.2019 03:00:00 -0,5 -1,5 -2,8 0 0 3 2 N 1032,5 16 0 0,0
15.02.2019 02:00:00 0,7 -0,2 -2,3 0 0 3 1 N 1032,8 20 0 0,0
15.02.2019 01:00:00 0,9 0,0 -1,9 0 0 3 1 N 1032,8 17 0 0,0
15.02.2019 00:00:00 2,0 0,8 -0,8 2 1 5 3 OZO 1032,8 17 0 0,0
14.02.2019 23:00:00 3,7 2,5 -0,1 0 0 5 3 N 1032,7 32 0 0,0
14.02.2019 22:00:00 5,1 3,6 1,8 0 0 8 5 N 1032,3 28 0 0,0
14.02.2019 21:00:00 8,0 5,5 5,8 6 4 11 6 ZW 1032,1 41 0 0,0
14.02.2019 20:00:00 10,7 6,4 8,2 9 5 13 7 W 1031,7 42 0 0,0
14.02.2019 19:00:00 11,8 5,6 9,6 7 4 17 9 W 1031,5 50 0 0,0
14.02.2019 18:00:00 13,8 5,4 12,0 9 5 21 12 WZW 1031,2 50 40 0,0
14.02.2019 17:00:00 16,9 4,9 17,8 11 6 19 10 WZW 1031,2 46 60 0,0
14.02.2019 16:00:00 19,3 0,8 24,5 5 3 13 7 ZW 1031,4 39 60 0,0
14.02.2019 15:00:00 18,6 0,7 24,3 6 3 12 7 WZW 1032,0 41 60 0,0
14.02.2019 14:00:00 17,7 2,8 22,2 2 1 13 7 ZW 1033,1 37 60 0,0

tt = temperatuur
td = dauwpunt
tt 5cm = temperatuur 5cm
ff = windsnelheid
fx = windstoten
dd = windrichting
ppp = luchtdruk
vv = zicht
sd = Zonneschijnduur
rr = neerslag

Weerstations in de omgeving